| time (UTC) | temp C | wind direction | speed KPH | gust KPH | rain 1hr cm | rain 24hr cm | rain mn cm | humidity % | barometer mb |
| 20260505153045 | 23 | 194 | 24.1 | 56.3 | 0.00 | 0.00 | 0.00 | 80 | 1007.2 |
| 20260505152528 | 23 | 157 | 25.7 | 56.3 | 0.00 | 0.00 | 0.00 | 81 | 1007.2 |
| 20260505152029 | 23 | 205 | 22.5 | 49.9 | 0.00 | 0.00 | 0.00 | 81 | 1007.2 |
| 20260505151551 | 23 | 206 | 20.9 | 49.9 | 0.00 | 0.00 | 0.00 | 81 | 1007.1 |
| 20260505151027 | 23 | 196 | 19.3 | 48.3 | 0.00 | 0.00 | 0.00 | 81 | 1007.2 |
| 20260505150529 | 23 | 167 | 20.9 | 48.3 | 0.00 | 0.00 | 0.00 | 81 | 1007.3 |
| 20260505140527 | 22 | 181 | 20.9 | 46.7 | 0.00 | 0.00 | 0.00 | 82 | 1007.1 |
| 20260505140108 | 22 | 211 | 24.1 | 43.5 | 0.00 | 0.00 | 0.00 | 82 | 1006.9 |
| 20260505125028 | 21 | 153 | 17.7 | 41.8 | 0.00 | 0.00 | 0.00 | 84 | 1006.8 |
| 20260505124547 | 21 | 206 | 20.9 | 41.8 | 0.00 | 0.00 | 0.00 | 84 | 1006.7 |
| 20260505124029 | 21 | 165 | 12.9 | 32.2 | 0.00 | 0.00 | 0.00 | 84 | 1006.7 |
| 20260505123529 | 21 | 165 | 19.3 | 32.2 | 0.00 | 0.00 | 0.00 | 84 | 1006.5 |
| 20260505123049 | 21 | 196 | 16.1 | 32.2 | 0.00 | 0.00 | 0.00 | 85 | 1006.5 |
| 20260505122529 | 21 | 206 | 12.9 | 30.6 | 0.00 | 0.00 | 0.00 | 85 | 1006.5 |
| 20260505122031 | 21 | 182 | 12.9 | 30.6 | 0.00 | 0.00 | 0.00 | 85 | 1006.6 |
| 20260505121543 | 21 | 151 | 12.9 | 30.6 | 0.00 | 0.00 | 0.00 | 85 | 1006.3 |
| 20260505121028 | 21 | 150 | 8.0 | 25.7 | 0.00 | 0.00 | 0.00 | 86 | 1006.4 |
| 20260505120528 | 21 | 177 | 16.1 | 30.6 | 0.00 | 0.00 | 0.00 | 86 | 1006.3 |
| 20260505120051 | 21 | 175 | 16.1 | 32.2 | 0.00 | 0.00 | 0.00 | 86 | 1006.4 |
| 20260505115529 | 21 | 155 | 12.9 | 33.8 | 0.00 | 0.00 | 0.00 | 86 | 1006.4 |
| 20260505115029 | 21 | 194 | 14.5 | 33.8 | 0.00 | 0.00 | 0.00 | 86 | 1006.4 |
| 20260505114553 | 21 | 176 | 14.5 | 30.6 | 0.00 | 0.00 | 0.00 | 86 | 1006.2 |
| 20260505114027 | 21 | 173 | 16.1 | 46.7 | 0.00 | 0.00 | 0.00 | 86 | 1006.1 |
| 20260505113526 | 21 | 169 | 20.9 | 46.7 | 0.00 | 0.00 | 0.00 | 86 | 1006.2 |
| 20260505113043 | 21 | 192 | 12.9 | 30.6 | 0.00 | 0.00 | 0.00 | 86 | 1006.2 |
| 20260505112529 | 21 | 180 | 16.1 | 33.8 | 0.00 | 0.00 | 0.00 | 86 | 1006.1 |
| 20260505112124 | 21 | 178 | 9.7 | 37.0 | 0.00 | 0.00 | 0.00 | 86 | 1006.1 |
| 20260505111539 | 21 | 185 | 14.5 | 37.0 | 0.00 | 0.00 | 0.00 | 86 | 1005.8 |
| 20260505111028 | 21 | 180 | 17.7 | 35.4 | 0.00 | 0.00 | 0.00 | 86 | 1005.8 |
| 20260505110528 | 21 | 176 | 19.3 | 35.4 | 0.00 | 0.00 | 0.00 | 86 | 1005.9 |
| 20260505102026 | 21 | 175 | 14.5 | 30.6 | 0.00 | 0.00 | 0.00 | 85 | 1006.3 |
| 20260505101549 | 21 | 190 | 16.1 | 33.8 | 0.00 | 0.00 | 0.00 | 85 | 1006.3 |
| 20260505101029 | 21 | 192 | 17.7 | 38.6 | 0.00 | 0.00 | 0.00 | 85 | 1006.4 |
| 20260505100529 | 21 | 196 | 16.1 | 38.6 | 0.00 | 0.00 | 0.00 | 85 | 1006.3 |
| 20260505100047 | 21 | 207 | 14.5 | 33.8 | 0.00 | 0.00 | 0.00 | 84 | 1006.4 |
| 20260505095529 | 21 | 200 | 16.1 | 51.5 | 0.00 | 0.00 | 0.00 | 84 | 1006.4 |
| 20260505095031 | 21 | 196 | 22.5 | 51.5 | 0.00 | 0.00 | 0.00 | 84 | 1006.2 |
| 20260505094545 | 21 | 189 | 17.7 | 41.8 | 0.00 | 0.00 | 0.00 | 84 | 1006.3 |
| 20260505094028 | 21 | 207 | 14.5 | 41.8 | 0.00 | 0.00 | 0.00 | 84 | 1006.3 |
| 20260505093528 | 21 | 192 | 20.9 | 49.9 | 0.00 | 0.00 | 0.00 | 84 | 1006.2 |
| 20260505093055 | 21 | 160 | 20.9 | 49.9 | 0.00 | 0.00 | 0.00 | 84 | 1006.0 |
| 20260505092529 | 21 | 156 | 22.5 | 46.7 | 0.00 | 0.00 | 0.00 | 84 | 1006.0 |
| 20260505092028 | 21 | 175 | 22.5 | 41.8 | 0.00 | 0.00 | 0.00 | 83 | 1006.1 |
| 20260505091600 | 21 | 169 | 22.5 | 41.8 | 0.00 | 0.00 | 0.00 | 83 | 1006.1 |
| 20260505091028 | 21 | 148 | 17.7 | 38.6 | 0.00 | 0.00 | 0.00 | 83 | 1006.2 |
| 20260505090528 | 21 | 212 | 19.3 | 40.2 | 0.00 | 0.00 | 0.00 | 83 | 1006.1 |
| 20260505090045 | 21 | 181 | 20.9 | 40.2 | 0.00 | 0.00 | 0.00 | 83 | 1006.1 |
| 20260505085531 | 21 | 190 | 19.3 | 38.6 | 0.00 | 0.00 | 0.00 | 83 | 1006.1 |
| 20260505085031 | 21 | 168 | 17.7 | 40.2 | 0.00 | 0.00 | 0.00 | 83 | 1006.1 |
| 20260505084544 | 21 | 201 | 20.9 | 40.2 | 0.00 | 0.00 | 0.00 | 83 | 1006.2 |
| 20260505084028 | 21 | 209 | 16.1 | 35.4 | 0.00 | 0.00 | 0.00 | 83 | 1006.2 |
| 20260505083528 | 21 | 169 | 19.3 | 35.4 | 0.00 | 0.00 | 0.00 | 83 | 1006.2 |
| 20260505083051 | 21 | 180 | 17.7 | 40.2 | 0.00 | 0.00 | 0.00 | 83 | 1006.2 |
| 20260505082533 | 21 | 176 | 20.9 | 40.2 | 0.00 | 0.00 | 0.00 | 83 | 1006.4 |
| 20260505082029 | 21 | 199 | 16.1 | 41.8 | 0.00 | 0.00 | 0.00 | 83 | 1006.4 |
| 20260505081546 | 21 | 166 | 22.5 | 41.8 | 0.00 | 0.00 | 0.00 | 83 | 1006.6 |
| 20260505081029 | 21 | 176 | 22.5 | 48.3 | 0.00 | 0.00 | 0.00 | 83 | 1006.5 |
| 20260505080529 | 21 | 194 | 20.9 | 48.3 | 0.00 | 0.00 | 0.00 | 83 | 1006.5 |
| 20260505080046 | 21 | 184 | 19.3 | 33.8 | 0.00 | 0.00 | 0.00 | 83 | 1006.6 |
| 20260505075528 | 21 | 192 | 17.7 | 37.0 | 0.00 | 0.00 | 0.00 | 83 | 1006.8 |
| 20260505075028 | 21 | 159 | 20.9 | 37.0 | 0.00 | 0.00 | 0.00 | 83 | 1006.7 |
| 20260505074544 | 21 | 178 | 17.7 | 38.6 | 0.00 | 0.00 | 0.00 | 83 | 1007.0 |
| 20260505074029 | 21 | 165 | 16.1 | 38.6 | 0.00 | 0.00 | 0.00 | 83 | 1007.1 |
| 20260505073530 | 21 | 184 | 17.7 | 33.8 | 0.00 | 0.00 | 0.00 | 83 | 1007.1 |
| 20260505073052 | 21 | 171 | 19.3 | 38.6 | 0.00 | 0.00 | 0.00 | 83 | 1007.2 |
| 20260505072529 | 21 | 171 | 19.3 | 40.2 | 0.00 | 0.00 | 0.00 | 83 | 1007.6 |
| 20260505072031 | 21 | 192 | 17.7 | 40.2 | 0.00 | 0.00 | 0.00 | 82 | 1007.5 |
| 20260505071553 | 21 | 178 | 24.1 | 38.6 | 0.00 | 0.00 | 0.00 | 82 | 1007.5 |
| 20260505071031 | 21 | 181 | 16.1 | 37.0 | 0.00 | 0.00 | 0.00 | 82 | 1007.4 |
| 20260505070529 | 21 | 184 | 20.9 | 37.0 | 0.00 | 0.00 | 0.00 | 82 | 1007.6 |
| 20260505070100 | 21 | 184 | 19.3 | 41.8 | 0.00 | 0.00 | 0.00 | 82 | 1007.6 |
| 20260505065529 | 21 | 198 | 16.1 | 41.8 | 0.00 | 0.00 | 0.00 | 81 | 1007.6 |
| 20260505065027 | 21 | 200 | 19.3 | 40.2 | 0.00 | 0.00 | 0.00 | 81 | 1007.7 |
| 20260505064551 | 22 | 177 | 16.1 | 41.8 | 0.00 | 0.00 | 0.00 | 81 | 1007.8 |
| 20260505064031 | 22 | 149 | 19.3 | 53.1 | 0.00 | 0.00 | 0.00 | 81 | 1007.9 |
| 20260505063528 | 22 | 171 | 16.1 | 53.1 | 0.00 | 0.00 | 0.00 | 81 | 1008.1 |
| 20260505063044 | 22 | 187 | 19.3 | 33.8 | 0.00 | 0.00 | 0.00 | 81 | 1007.9 |
| 20260505062531 | 22 | 155 | 14.5 | 33.8 | 0.00 | 0.00 | 0.00 | 80 | 1007.9 |
| 20260505062027 | 22 | 189 | 17.7 | 41.8 | 0.00 | 0.00 | 0.00 | 80 | 1007.9 |
| 20260505061547 | 22 | 158 | 22.5 | 41.8 | 0.00 | 0.00 | 0.00 | 80 | 1007.8 |
| 20260505061027 | 22 | 210 | 16.1 | 37.0 | 0.00 | 0.00 | 0.00 | 80 | 1007.9 |
| 20260505060529 | 22 | 156 | 16.1 | 33.8 | 0.00 | 0.00 | 0.00 | 79 | 1007.9 |
| 20260505060052 | 22 | 159 | 16.1 | 35.4 | 0.00 | 0.00 | 0.00 | 79 | 1008.0 |
| 20260505055530 | 22 | 159 | 19.3 | 38.6 | 0.00 | 0.00 | 0.00 | 79 | 1007.9 |
| 20260505055029 | 22 | 136 | 16.1 | 38.6 | 0.00 | 0.00 | 0.00 | 79 | 1008.0 |
| 20260505054539 | 22 | 188 | 12.9 | 29.0 | 0.00 | 0.00 | 0.00 | 79 | 1008.1 |
| 20260505054028 | 22 | 159 | 12.9 | 29.0 | 0.00 | 0.00 | 0.00 | 79 | 1008.0 |
| 20260505053528 | 22 | 186 | 14.5 | 30.6 | 0.00 | 0.00 | 0.00 | 78 | 1008.1 |
| 20260505053049 | 22 | 174 | 14.5 | 30.6 | 0.00 | 0.00 | 0.00 | 78 | 1008.1 |
| 20260505052528 | 22 | 195 | 11.3 | 25.7 | 0.00 | 0.00 | 0.00 | 78 | 1008.1 |
| 20260505052028 | 22 | 163 | 12.9 | 27.4 | 0.00 | 0.00 | 0.00 | 78 | 1008.1 |
| 20260505051557 | 22 | 140 | 9.7 | 30.6 | 0.00 | 0.00 | 0.00 | 78 | 1008.1 |
| 20260505051028 | 22 | 177 | 14.5 | 30.6 | 0.00 | 0.00 | 0.00 | 78 | 1008.1 |
| 20260505050532 | 22 | 180 | 12.9 | 30.6 | 0.00 | 0.00 | 0.00 | 78 | 1008.0 |
| 20260505041543 | 22 | 175 | 9.7 | 24.1 | 0.00 | 0.00 | 0.00 | 77 | 1008.1 |
| 20260505041029 | 22 | 163 | 11.3 | 19.3 | 0.00 | 0.00 | 0.00 | 77 | 1008.2 |
| 20260505040529 | 22 | 165 | 11.3 | 24.1 | 0.00 | 0.00 | 0.00 | 77 | 1008.1 |
| 20260505040047 | 22 | 175 | 11.3 | 24.1 | 0.00 | 0.00 | 0.00 | 77 | 1008.2 |
| 20260505035532 | 22 | 152 | 12.9 | 24.1 | 0.00 | 0.00 | 0.00 | 76 | 1008.0 |
| 20260505035029 | 22 | 142 | 12.9 | 24.1 | 0.00 | 0.00 | 0.00 | 76 | 1008.0 |
| 20260505034546 | 22 | 172 | 8.0 | 17.7 | 0.00 | 0.00 | 0.00 | 76 | 1008.0 |
| 20260505034026 | 22 | 165 | 9.7 | 17.7 | 0.00 | 0.00 | 0.00 | 76 | 1008.1 |
| 20260505033528 | 22 | 158 | 9.7 | 17.7 | 0.00 | 0.00 | 0.00 | 76 | 1008.1 |
| 20260505033045 | 22 | 179 | 9.7 | 17.7 | 0.00 | 0.00 | 0.00 | 75 | 1008.3 |
| 20260505032529 | 22 | 150 | 8.0 | 20.9 | 0.00 | 0.00 | 0.00 | 75 | 1008.3 |
| 20260505032029 | 22 | 172 | 9.7 | 20.9 | 0.00 | 0.00 | 0.00 | 75 | 1008.3 |
| 20260505031552 | 22 | 154 | 9.7 | 24.1 | 0.00 | 0.00 | 0.00 | 75 | 1008.0 |
| 20260505031028 | 22 | 136 | 11.3 | 24.1 | 0.00 | 0.00 | 0.00 | 74 | 1008.0 |
| 20260505030528 | 22 | 177 | 9.7 | 19.3 | 0.00 | 0.00 | 0.00 | 74 | 1008.0 |
| 20260505030047 | 23 | 161 | 9.7 | 19.3 | 0.00 | 0.00 | 0.00 | 74 | 1008.1 |
| 20260505025529 | 23 | 142 | 9.7 | 19.3 | 0.00 | 0.00 | 0.00 | 73 | 1008.1 |
| 20260505025027 | 23 | 136 | 9.7 | 20.9 | 0.00 | 0.00 | 0.00 | 73 | 1007.9 |
| 20260505024549 | 23 | 167 | 8.0 | 20.9 | 0.00 | 0.00 | 0.00 | 73 | 1007.8 |
| 20260505024028 | 23 | 209 | 8.0 | 17.7 | 0.00 | 0.00 | 0.00 | 73 | 1007.8 |
| 20260505023528 | 23 | 157 | 9.7 | 22.5 | 0.00 | 0.00 | 0.00 | 73 | 1008.0 |
| 20260505023051 | 23 | 136 | 9.7 | 22.5 | 0.00 | 0.00 | 0.00 | 72 | 1007.9 |
| 20260505022529 | 23 | 149 | 12.9 | 22.5 | 0.00 | 0.00 | 0.00 | 72 | 1007.7 |
| 20260505022029 | 23 | 148 | 9.7 | 17.7 | 0.00 | 0.00 | 0.00 | 71 | 1007.8 |
| 20260505021545 | 23 | 154 | 8.0 | 19.3 | 0.00 | 0.00 | 0.00 | 71 | 1007.7 |
| 20260505021029 | 23 | 156 | 11.3 | 19.3 | 0.00 | 0.00 | 0.00 | 71 | 1007.8 |
| 20260505020528 | 23 | 144 | 9.7 | 19.3 | 0.00 | 0.00 | 0.00 | 71 | 1007.8 |
| 20260505020046 | 23 | 148 | 9.7 | 19.3 | 0.00 | 0.00 | 0.00 | 71 | 1007.8 |
| 20260505015528 | 23 | 120 | 8.0 | 16.1 | 0.00 | 0.00 | 0.00 | 71 | 1007.8 |
| 20260505015029 | 23 | 124 | 8.0 | 16.1 | 0.00 | 0.00 | 0.00 | 71 | 1007.7 |
| 20260505014546 | 23 | 139 | 9.7 | 16.1 | 0.00 | 0.00 | 0.00 | 70 | 1007.8 |
| 20260505014029 | 23 | 153 | 8.0 | 14.5 | 0.00 | 0.00 | 0.00 | 70 | 1007.7 |
| 20260505013528 | 23 | 165 | 8.0 | 16.1 | 0.00 | 0.00 | 0.00 | 69 | 1007.7 |
| 20260505013059 | 24 | 140 | 8.0 | 16.1 | 0.00 | 0.00 | 0.00 | 69 | 1007.6 |
| 20260505012528 | 24 | 138 | 8.0 | 14.5 | 0.00 | 0.00 | 0.00 | 68 | 1007.7 |
| 20260505012028 | 24 | 156 | 6.4 | 16.1 | 0.00 | 0.00 | 0.00 | 68 | 1007.7 |
| 20260505011547 | 24 | 184 | 8.0 | 17.7 | 0.00 | 0.00 | 0.00 | 67 | 1007.6 |
| 20260505011028 | 25 | 155 | 9.7 | 19.3 | 0.00 | 0.00 | 0.00 | 67 | 1007.8 |
| 20260505010525 | 25 | 169 | 6.4 | 27.4 | 0.00 | 0.00 | 0.00 | 66 | 1007.8 |
| 20260505010055 | 25 | 132 | 11.3 | 27.4 | 0.00 | 0.00 | 0.00 | 66 | 1007.7 |
| 20260505005529 | 25 | 135 | 9.7 | 19.3 | 0.00 | 0.00 | 0.00 | 66 | 1007.6 |
| 20260505005029 | 25 | 179 | 11.3 | 19.3 | 0.00 | 0.00 | 0.00 | 65 | 1007.8 |
| 20260505004545 | 25 | 162 | 11.3 | 25.7 | 0.00 | 0.00 | 0.00 | 65 | 1007.9 |
| 20260505004028 | 25 | 167 | 11.3 | 27.4 | 0.00 | 0.00 | 0.00 | 65 | 1007.8 |
| 20260505003533 | 25 | 174 | 12.9 | 27.4 | 0.00 | 0.00 | 0.00 | 64 | 1007.8 |
| 20260505003042 | 25 | 163 | 11.3 | 27.4 | 0.00 | 0.00 | 0.00 | 64 | 1007.8 |
| 20260505002526 | 25 | 186 | 9.7 | 29.0 | 0.00 | 0.00 | 0.00 | 63 | 1007.8 |
| 20260505002026 | 26 | 187 | 16.1 | 29.0 | 0.00 | 0.00 | 0.00 | 63 | 1007.9 |
| 20260505001540 | 26 | 127 | 11.3 | 33.8 | 0.00 | 0.00 | 0.00 | 63 | 1007.9 |
| 20260505001029 | 26 | 177 | 19.3 | 33.8 | 0.00 | 0.00 | 0.00 | 62 | 1007.9 |
| 20260505000531 | 26 | 182 | 14.5 | 27.4 | 0.00 | 0.00 | 0.00 | 62 | 1007.9 |
| 20260505000051 | 26 | 146 | 11.3 | 41.8 | 0.00 | 0.00 | 0.00 | 62 | 1008.0 |
| 20260504235526 | 26 | 154 | 22.5 | 41.8 | 0.00 | 0.00 | 0.00 | 62 | 1008.0 |
| 20260504235026 | 26 | 175 | 12.9 | 29.0 | 0.00 | 0.00 | 0.00 | 62 | 1008.1 |
| 20260504234544 | 26 | 180 | 12.9 | 32.2 | 0.00 | 0.00 | 0.00 | 62 | 1008.1 |
| 20260504234031 | 26 | 175 | 16.1 | 38.6 | 0.00 | 0.00 | 0.00 | 61 | 1008.0 |
| 20260504233526 | 26 | 159 | 16.1 | 46.7 | 0.00 | 0.00 | 0.00 | 61 | 1008.2 |
| 20260504233047 | 26 | 168 | 22.5 | 46.7 | 0.00 | 0.00 | 0.00 | 60 | 1008.1 |
| 20260504232527 | 26 | 202 | 25.7 | 45.1 | 0.00 | 0.00 | 0.00 | 60 | 1008.1 |
| 20260504232027 | 26 | 196 | 17.7 | 40.2 | 0.00 | 0.00 | 0.00 | 60 | 1008.2 |
| 20260504231543 | 26 | 169 | 17.7 | 38.6 | 0.00 | 0.00 | 0.00 | 60 | 1008.3 |
| 20260504231028 | 26 | 185 | 20.9 | 43.5 | 0.00 | 0.00 | 0.00 | 60 | 1008.2 |
| 20260504230526 | 26 | 171 | 17.7 | 43.5 | 0.00 | 0.00 | 0.00 | 59 | 1008.3 |
| 20260504230044 | 26 | 159 | 17.7 | 35.4 | 0.00 | 0.00 | 0.00 | 59 | 1008.5 |
| 20260504225528 | 26 | 169 | 22.5 | 41.8 | 0.00 | 0.00 | 0.00 | 59 | 1008.4 |
| 20260504225025 | 26 | 184 | 24.1 | 45.1 | 0.00 | 0.00 | 0.00 | 59 | 1008.3 |
| 20260504224538 | 26 | 176 | 22.5 | 45.1 | 0.00 | 0.00 | 0.00 | 58 | 1008.5 |
| 20260504224028 | 26 | 165 | 20.9 | 48.3 | 0.00 | 0.00 | 0.00 | 59 | 1008.6 |
| 20260504223526 | 26 | 195 | 24.1 | 48.3 | 0.00 | 0.00 | 0.00 | 59 | 1008.6 |
| 20260504223044 | 26 | 179 | 22.5 | 45.1 | 0.00 | 0.00 | 0.00 | 59 | 1008.8 |
| 20260504222530 | 26 | 196 | 24.1 | 40.2 | 0.00 | 0.00 | 0.00 | 58 | 1008.7 |
| 20260504222026 | 26 | 186 | 20.9 | 41.8 | 0.00 | 0.00 | 0.00 | 58 | 1008.7 |
| 20260504221544 | 27 | 166 | 19.3 | 43.5 | 0.00 | 0.00 | 0.00 | 57 | 1008.8 |
| 20260504221026 | 27 | 160 | 20.9 | 43.5 | 0.00 | 0.00 | 0.00 | 57 | 1008.9 |
| 20260504220526 | 27 | 180 | 20.9 | 40.2 | 0.00 | 0.00 | 0.00 | 57 | 1008.8 |
| 20260504220047 | 27 | 129 | 17.7 | 49.9 | 0.00 | 0.00 | 0.00 | 57 | 1008.8 |
| 20260504215529 | 27 | 205 | 19.3 | 49.9 | 0.00 | 0.00 | 0.00 | 57 | 1008.9 |
| 20260504215029 | 27 | 200 | 20.9 | 48.3 | 0.00 | 0.00 | 0.00 | 56 | 1009.0 |
| 20260504214545 | 27 | 178 | 19.3 | 35.4 | 0.00 | 0.00 | 0.00 | 56 | 1009.0 |
| 20260504214026 | 27 | 221 | 14.5 | 38.6 | 0.00 | 0.00 | 0.00 | 57 | 1009.1 |
| 20260504213531 | 27 | 164 | 19.3 | 38.6 | 0.00 | 0.00 | 0.00 | 56 | 1009.1 |
| 20260504213042 | 27 | 153 | 17.7 | 37.0 | 0.00 | 0.00 | 0.00 | 56 | 1009.1 |
| 20260504212528 | 27 | 167 | 19.3 | 40.2 | 0.00 | 0.00 | 0.00 | 55 | 1009.4 |
| 20260504212029 | 27 | 142 | 20.9 | 40.2 | 0.00 | 0.00 | 0.00 | 56 | 1009.5 |
| 20260504211551 | 27 | 145 | 17.7 | 46.7 | 0.00 | 0.00 | 0.00 | 56 | 1009.7 |
| 20260504211027 | 27 | 167 | 20.9 | 46.7 | 0.00 | 0.00 | 0.00 | 56 | 1009.4 |
| 20260504210526 | 27 | 175 | 27.4 | 43.5 | 0.00 | 0.00 | 0.00 | 55 | 1009.5 |
| 20260504210050 | 27 | 178 | 20.9 | 41.8 | 0.00 | 0.00 | 0.00 | 55 | 1009.9 |
| 20260504205527 | 27 | 211 | 20.9 | 41.8 | 0.00 | 0.00 | 0.00 | 55 | 1009.8 |
| 20260504205027 | 27 | 201 | 22.5 | 37.0 | 0.00 | 0.00 | 0.00 | 54 | 1010.0 |
| 20260504204543 | 27 | 180 | 19.3 | 43.5 | 0.00 | 0.00 | 0.00 | 54 | 1010.0 |
| 20260504204028 | 27 | 146 | 17.7 | 43.5 | 0.00 | 0.00 | 0.00 | 54 | 1010.2 |
| 20260504203532 | 27 | 184 | 20.9 | 38.6 | 0.00 | 0.00 | 0.00 | 54 | 1010.4 |
| 20260504203046 | 27 | 216 | 20.9 | 45.1 | 0.00 | 0.00 | 0.00 | 54 | 1010.4 |
| 20260504202528 | 27 | 177 | 19.3 | 45.1 | 0.00 | 0.00 | 0.00 | 54 | 1010.8 |
| 20260504202027 | 27 | 192 | 16.1 | 33.8 | 0.00 | 0.00 | 0.00 | 54 | 1010.8 |
| 20260504201550 | 27 | 195 | 12.9 | 38.6 | 0.00 | 0.00 | 0.00 | 54 | 1010.8 |
| 20260504201026 | 27 | 169 | 14.5 | 38.6 | 0.00 | 0.00 | 0.00 | 54 | 1011.0 |
| 20260504200528 | 27 | 224 | 20.9 | 38.6 | 0.00 | 0.00 | 0.00 | 53 | 1011.0 |
| 20260504200048 | 27 | 173 | 20.9 | 43.5 | 0.00 | 0.00 | 0.00 | 53 | 1011.0 |
| 20260504195526 | 27 | 190 | 17.7 | 46.7 | 0.00 | 0.00 | 0.00 | 53 | 1011.1 |
| 20260504195027 | 26 | 165 | 20.9 | 46.7 | 0.00 | 0.00 | 0.00 | 53 | 1011.1 |
| 20260504194550 | 26 | 134 | 24.1 | 46.7 | 0.00 | 0.00 | 0.00 | 53 | 1011.3 |
| 20260504194026 | 26 | 360 | 24.1 | 46.7 | 0.00 | 0.00 | 0.00 | 53 | 1011.3 |
| 20260504193528 | 26 | 191 | 24.1 | 43.5 | 0.00 | 0.00 | 0.00 | 51 | 1011.5 |
| 20260504193046 | 26 | 205 | 20.9 | 41.8 | 0.00 | 0.00 | 0.00 | 52 | 1011.6 |
| 20260504192526 | 26 | 154 | 19.3 | 41.8 | 0.00 | 0.00 | 0.00 | 52 | 1011.7 |
| 20260504192029 | 26 | 195 | 22.5 | 40.2 | 0.00 | 0.00 | 0.00 | 51 | 1011.7 |
| 20260504191555 | 26 | 150 | 22.5 | 43.5 | 0.00 | 0.00 | 0.00 | 51 | 1012.0 |
| 20260504191026 | 26 | 164 | 17.7 | 43.5 | 0.00 | 0.00 | 0.00 | 51 | 1012.1 |
| 20260504190531 | 26 | 161 | 19.3 | 37.0 | 0.00 | 0.00 | 0.00 | 51 | 1012.1 |
| 20260504190047 | 26 | 198 | 20.9 | 48.3 | 0.00 | 0.00 | 0.00 | 50 | 1012.2 |
| 20260504185529 | 26 | 171 | 22.5 | 48.3 | 0.00 | 0.00 | 0.00 | 50 | 1012.3 |
| 20260504185026 | 26 | 165 | 16.1 | 43.5 | 0.00 | 0.00 | 0.00 | 50 | 1012.3 |
| 20260504184602 | 26 | 167 | 17.7 | 43.5 | 0.00 | 0.00 | 0.00 | 51 | 1012.3 |
| 20260504184027 | 26 | 159 | 17.7 | 40.2 | 0.00 | 0.00 | 0.00 | 50 | 1012.5 |
| 20260504183529 | 26 | 177 | 16.1 | 38.6 | 0.00 | 0.00 | 0.00 | 51 | 1012.5 |
| 20260504183046 | 26 | 148 | 17.7 | 48.3 | 0.00 | 0.00 | 0.00 | 51 | 1012.5 |
| 20260504182531 | 25 | 140 | 22.5 | 48.3 | 0.00 | 0.00 | 0.00 | 49 | 1012.5 |
| 20260504182026 | 26 | 190 | 17.7 | 41.8 | 0.00 | 0.00 | 0.00 | 50 | 1012.6 |
| 20260504181548 | 26 | 171 | 12.9 | 37.0 | 0.00 | 0.00 | 0.00 | 50 | 1012.6 |
| 20260504181029 | 25 | 182 | 19.3 | 37.0 | 0.00 | 0.00 | 0.00 | 50 | 1012.5 |
| 20260504180527 | 25 | 213 | 20.9 | 40.2 | 0.00 | 0.00 | 0.00 | 51 | 1012.7 |
| 20260504180052 | 25 | 130 | 20.9 | 43.5 | 0.00 | 0.00 | 0.00 | 51 | 1012.9 |
| 20260504175529 | 25 | 175 | 25.7 | 43.5 | 0.00 | 0.00 | 0.00 | 49 | 1013.1 |
| 20260504175027 | 25 | 138 | 20.9 | 38.6 | 0.00 | 0.00 | 0.00 | 48 | 1013.1 |
| 20260504174546 | 25 | 175 | 16.1 | 37.0 | 0.00 | 0.00 | 0.00 | 51 | 1013.2 |
| 20260504174029 | 25 | 187 | 14.5 | 40.2 | 0.00 | 0.00 | 0.00 | 50 | 1013.4 |
| 20260504173529 | 25 | 184 | 19.3 | 41.8 | 0.00 | 0.00 | 0.00 | 48 | 1013.5 |
| 20260504173046 | 25 | 212 | 20.9 | 46.7 | 0.00 | 0.00 | 0.00 | 48 | 1013.5 |
| 20260504172528 | 25 | 175 | 25.7 | 46.7 | 0.00 | 0.00 | 0.00 | 46 | 1013.5 |
| 20260504172028 | 25 | 248 | 19.3 | 45.1 | 0.00 | 0.00 | 0.00 | 46 | 1013.7 |
| 20260504171547 | 25 | 194 | 20.9 | 45.1 | 0.00 | 0.00 | 0.00 | 49 | 1013.7 |
| 20260504171033 | 24 | 173 | 20.9 | 41.8 | 0.00 | 0.00 | 0.00 | 50 | 1013.9 |
| 20260504170531 | 24 | 215 | 19.3 | 43.5 | 0.00 | 0.00 | 0.00 | 51 | 1013.8 |